Location: Hokitika
(42.7170°S, 170.9670°E)
Time: 08:39:48
(UTC+13:00)

Cosmos 292 Rocket - Pass Details

Date: 24 January 2019
Orbit: 673 x 695 km, 74.0° (Epoch: 16 February)

Event Time Altitude Azimuth Distance (km) Brightness Sun altitude
Rises 21:35:09 0° 202° (SSW) 3,064 8.1 -5.1°
Reaches altitude 10° 21:37:28 10° 202° (SSW) 2,143 7.3 -5.4°
Maximum altitude 21:42:17 79° 288° (WNW) 703 3.9 -6.2°
Drops below altitude 10° 21:47:04 10° 14° (NNE) 2,124 5.9 -6.9°
Enters shadow 21:49:07 - 15° (NNE) 2,934 6.6 -7.2°
